This demonstration page uses our WeatherBlox Daily Observations layout. Learn more.

Left ArrowRight Arrow

39.29038, -76.61219

Hourly Observations for May 3, 2021

Temp ( °F °C ) Dew Point ( °F °C ) Humidity (%) Winds ( mph kmh ) Pressure ( in mb ) Visibility ( mi km ) Precip ( " mm )
12:54 am 00:54 Cloudy 69 20.6 49 9.4 49 49 SW 3 6 29.79 1009 10 16 N/A
1:54 am 01:54 Cloudy 71 21.7 51 10.6 49 49 WSW 7 11 29.78 1009 10 16 N/A
2:54 am 02:54 Cloudy 71 21.7 52 11.1 51 51 SW 6 9 29.78 1008 10 16 N/A
3:54 am 03:54 Cloudy 69 20.6 53 11.7 57 57 WSW 7 11 29.78 1009 10 16 N/A
4:54 am 04:54 Cloudy 69 20.6 52 11.1 55 55 WSW 8 13 29.80 1009 10 16 N/A
5:54 am 05:54 Cloudy 70 21.1 50 10 49 49 W 12 19 29.82 1010 10 16 N/A
6:54 am 06:54 Cloudy with Light Rain 65 18.3 53 11.7 66 66 W 13 20 29.84 1011 10 16 0.00 0.00
7:54 am 07:54 Cloudy 67 19.4 54 12.2 63 63 W 10 17 29.86 1011 10 16 0.00 0.00
8:54 am 08:54 Cloudy 68 20 54 12.2 61 61 WNW 7 11 29.85 1011 10 16 N/A
9:54 am 09:54 Cloudy 69 20.6 56 13.3 63 63 SSW 9 15 29.86 1011 10 16 0.00 0.00
10:54 am 10:54 Cloudy 69 20.6 57 13.9 66 66 SSW 5 7 29.86 1011 10 16 N/A
11:54 am 11:54 Mostly Cloudy 71 21.7 57 13.9 61 61 N N/A 29.83 1010 10 16 N/A
12:54 pm 12:54 Cloudy 75 23.9 57 13.9 54 54 S 5 7 29.81 1010 10 16 N/A
1:54 pm 13:54 Cloudy with Light Rain 73 22.8 60 15.6 64 64 SE 7 11 29.78 1009 10 16 0.00 0.00
2:54 pm 14:54 Cloudy 72 22.2 62 16.7 71 71 SSE 6 9 29.76 1008 10 16 0.00 0.00
3:54 pm 15:54 Cloudy 72 22.2 63 17.2 73 73 ESE 8 13 29.73 1007 10 16 N/A
4:54 pm 16:54 Cloudy 73 22.8 64 17.8 74 74 SE 6 9 29.71 1006 10 16 N/A
5:54 pm 17:54 Cloudy 74 23.3 65 18.3 74 74 VRB 5 7 29.70 1006 10 16 N/A
6:16 pm 18:16 Mostly Cloudy 74 23.3 65 18.3 74 74 SSE 7 11 29.69 1006 10 16 N/A
6:54 pm 18:54 Cloudy 73 22.8 65 18.3 76 76 SE 7 11 29.69 1005 10 16 N/A
7:54 pm 19:54 Cloudy 71 21.7 64 17.8 79 79 SE 6 9 29.67 1005 10 16 N/A
8:54 pm 20:54 Mostly Cloudy 69 20.6 64 17.8 84 84 VRB 3 6 29.66 1004 10 16 N/A
9:54 pm 21:54 Mostly Cloudy 70 21.1 65 18.3 84 84 S 5 7 29.67 1005 10 16 N/A
10:54 pm 22:54 Cloudy 70 21.1 65 18.3 84 84 SW 5 7 29.68 1005 10 16 N/A
11:54 pm 23:54 Cloudy with Light Rain 70 21.1 64 17.8 82 82 SW 9 15 29.67 1005 10 16 0.01 0.25

Powered by AerisWeather